Find Starlink 32745

NORAD ID: 62755 Int'l Des: 2025-014 Owner: SPXS Country: US Constellation: starlink operational
LEOCIRCULAR

現在のビュー

3D地球を読み込み中...

About Starlink 32745

Starlink 32745 (NORAD 62755) is a starlink constellation satellite (v2 mini) launched Jan 21, 2025 by SPXS of US. It operates in LEO, CIRCULAR orbit with a mass of 730.00 kg.

Starlink 32745について

説明を読み込み中...

次回通過

Passes for default location (London). Set your location on the main map for personalized predictions.

高度履歴

Loading altitude history...

軌道要素

1 62755U 25014W 26167.14954868 .00023779 00000-0 87027-3 0 9999
2 62755 43.0041 318.5011 0002082 266.6111 93.4502 15.27601296 78314
Epoch: Jun 16, 2026 • Age: 20 hours

現在のステータス

高度 492.4 km
速度 7.62 km/s
衛星直下点 -36.93°S, 70.23°W
打ち上げ日 Jan 21, 2025
運用期間 1.3 years
タイプ internet

技術仕様

分類 Payload
質量 730.00 kg
乾燥質量 700.00 kg
総質量 730.00 kg
長さ 0.30 m
直径 4.10 m
スパン 29.00 m
形状 Box + pan
製造者 SPXS
バスタイプ Starlink V2M
フェーズステータス In Orbit
所有者/国 SPXS/US

Most Searched